Regional Weather Roundup
Issued by NWS Sterling, VA

Home | Current Version | Previous Version | Graphics & Text | Print | Product List | Glossary On
Versions: 1 2 3 4 5 6 7 8 9 10 11 12 13 14 15 16 17 18 19 20 21 22 23 24 25 26 27 28 29 30 31 32 33 34 35 36 37 38 39 40 41 42 43 44 45 46 47 48 49 50
000
ASUS41 KLWX 221810
RWRLWX

REGIONAL WEATHER ROUNDUP
NATIONAL WEATHER SERVICE BALTIMORE MD/WASHINGTON DC
200 PM EDT FRI AUG 22 2014

Note: "FAIR" indicates few or no clouds below 12,000 feet
with no significant weather and/or obstructions to visibility.
 TC=TEMPERATURE CELSIUS

 * =Non NWS site. Station does not report precipitation (e.g. rain,
    snow, etc.), thunder, or fog.

DCZ001-MDZ009-015-VAZ040>042-051-053>054-221900-
WASHINGTON METRO
  /KDAA//-FT BELVOIR

CITY           SKY/WX    TMP DP  RH WIND       PRES   REMARKS
WASHINGTON NAT LGT RAIN  81  69  67 CALM      29.99S
DULLES         CLOUDY    75  71  87 W3        30.00F
ANDREWS AFB    CLOUDY    77  72  83 NW2       29.99S
QUANTICO       CLOUDY    79  69  71 NW9       30.00S
COLLEGE PARK*  CLOUDY    79  72  78 CALM      29.99S
LEESBURG*      CLOUDY    77  73  88 CALM      30.01F
MANASSAS*      CLOUDY    79  72  78 N5        30.01R
GAITHERSBURG*  PTSUNNY   77  70  78 NW5       30.03F

$$

MDZ006>007-011-014-221900-
BALTIMORE METRO

CITY           SKY/WX    TMP DP  RH WIND       PRES   REMARKS
BWI AIRPORT    LGT RAIN  77  69  76 E7        29.98F
MD SCIENCE CTR   N/A     78  70  76 MISG      29.99S
MARTIN STATE   PTSUNNY   79  72  78 E6        30.00F
ANNAPOLIS        N/A     76  69  79 NE7       29.98S
FORT MEADE*    CLOUDY    77  68  73 E5        30.01S

$$

MDZ012-015-019>023-221900-
MARYLAND EASTERN SHORE

CITY           SKY/WX    TMP DP  RH WIND       PRES   REMARKS
OCEAN CITY     CLOUDY    78  71  79 E14       29.97S
SALISBURY      RAIN      75  72  88 E12       29.96S VSB 3/4
BAY BRIDGE AP*   N/A     75  70  83 N6        29.98F
CAMBRIDGE*     PTSUNNY   81  70  69 N3        29.95F
EASTON*        PTSUNNY   84  73  70 N9        30.00F HX  91

$$

MDZ017>025-221900-
SOUTHERN MARYLAND

CITY           SKY/WX    TMP DP  RH WIND       PRES   REMARKS
PATUXENT RIVER CLOUDY    80  71  74 N8        29.97S
ST INIGOES     CLOUDY    82  69  64 N3        29.96F
LEONARDTOWN*   CLOUDY    79  70  73 N6        29.99S

$$

MDZ003>005-221900-
NORTH CENTRAL MARYLAND

CITY           SKY/WX    TMP DP  RH WIND       PRES   REMARKS
FREDERICK*     PTSUNNY   79  72  78 NE3       30.02
HAGERSTOWN APT CLOUDY    78  67  68 CALM      30.01F
WESTMINSTER*   PTSUNNY   79  70  73 CALM      30.01F

$$

MDZ501>502-221900-
WESTERN MARYLAND

CITY           SKY/WX    TMP DP  RH WIND       PRES   REMARKS
OAKLAND*       PTSUNNY   72  70  94 CALM      30.09F
CUMBERLAND*    MOSUNNY   82  68  61 CALM      30.04F

$$

VAZ025>031-221900-
SHENANDOAH VALLEY

CITY           SKY/WX    TMP DP  RH WIND       PRES   REMARKS
WINCHESTER*    CLOUDY    77  68  73 CALM      30.02F
STAUNTON*      PTSUNNY   82  69  63 E3        30.03F

$$

WVZ021-048>050-054>055-221900-
EASTERN WEST VIRGINIA PANHANDLE

CITY           SKY/WX    TMP DP  RH WIND       PRES   REMARKS
MARTINSBURG    CLOUDY    78  66  66 S6        30.01F
PETERSBURG*    NOT AVBL

$$

VAZ036>039-050-221900-
CENTRAL FOOTHILLS

CITY           SKY/WX    TMP DP  RH WIND       PRES   REMARKS
CHARLOTTESVILL CLOUDY    75  70  84 CALM      30.01F
ORANGE*        CLOUDY    75  68  78 NW5       30.03F

$$

VAZ055>057-221900-
NORTH AND CENTRAL PIEDMONT

CITY           SKY/WX    TMP DP  RH WIND       PRES   REMARKS
FREDERICKSBRG* CLOUDY    78  69  73 NW5       29.99S
STAFFORD*      RAIN      76  72  87 NW6       30.05R

$$

NCZ024-NYZ072-PAZ021-071-VAZ022-071-221900-
OTHER REGIONAL OBSERVATIONS

CITY           SKY/WX    TMP DP  RH WIND       PRES   REMARKS
NEW YORK CITY  PTSUNNY   77  60  55 NE6       30.05F
PHILADELPHIA   PTSUNNY   79  67  66 E10       30.00F
PITTSBURGH     CLOUDY    79  68  69 CALM      30.00F
ROANOKE        CLOUDY    78  70  76 NW5       30.07F
RICHMOND       CLOUDY    80  69  69 NE3       29.99F
RALEIGH        PTSUNNY   90  71  53 VRB5      30.01F HX  96

$$

ANZ530>537-221900-
MARINE OBSERVATIONS

STATION/POSITION TIME  TEMP    WIND        PRES
                       AIR SEA DIR/SP/G
                 (UTC) (F)     (DEG/KT/KT) (MB)
THOMAS PT LIGHT  1800   75 78   10/ 10/ 11 1015.7S
BALT KEY BRIDGE  1800   76      50/  4/  6 1015.2F
COVE POINT       1800   76      10/  8/  9 1014.9F
LEWISETTA        1800   80 80   10/  4/  5 1014.4F
SOLOMONS ISLAND  1800      80                N/A
PINEY POINT      1800          310/  7/  8   N/A

$$



USA.gov is the U.S. government's official web portal to all federal, state and local government web resources and services.